This demonstration page uses our WeatherBlox Daily Observations layout. Learn more.

Left ArrowRight Arrow

36.17497, -115.13722

Hourly Observations for August 7, 2016

Temp ( °F °C ) Dew Point ( °F °C ) Humidity (%) Winds ( mph kmh ) Pressure ( in mb ) Visibility ( mi km ) Precip ( " mm )
12:53 am 00:53 Clear 90 32.2 45 7.2 21 21 SSW 6 9 29.71 1006 10 16.0934 0 0
1:53 am 01:53 Clear 89 31.7 46 7.8 23 23 SW 3 6 29.72 1006 10 16.0934 0 0
2:53 am 02:53 Clear 87 30.6 42 5.6 21 21 SSW 6 9 29.72 1006 10 16.0934 0 0
3:53 am 03:53 Clear 86 30 38 3.3 18 18 SW 5 7 29.72 1006 10 16.0934 0 0
4:53 am 04:53 Clear 84 28.9 39 3.9 20 20 E 8 13 29.72 1007 10 16.0934 0 0
5:53 am 05:53 Clear 84 28.9 39 3.9 20 20 Calm 29.73 1007 10 16.0934 0 0
6:53 am 06:53 Sunny 83 28.3 41 5 23 23 S 3 6 29.75 1008 10 16.0934 0 0
7:53 am 07:53 Sunny 88 31.1 39 3.9 18 18 S 8 13 29.75 1008 10 16.0934 0 0
8:53 am 08:53 Sunny 93 33.9 39 3.9 15 15 S 12 19 29.75 1008 10 16.0934 0 0
9:53 am 09:53 Sunny 96 35.6 38 3.3 13 13 S 13 20 29.76 1008 10 16.0934 0 0
10:53 am 10:53 Sunny 98 36.7 39 3.9 13 13 S 14 22 29.75 1007 10 16.0934 0 0
11:53 am 11:53 Sunny 101 38.3 39 3.9 12 12 SSW 15 24 29.73 1007 10 16.0934 0 0
12:53 pm 12:53 Sunny 102 38.9 38 3.3 11 11 SSW 23 37 29.73 1007 10 16.0934 0 0
1:53 pm 13:53 Sunny 103 39.4 38 3.3 11 11 SSW 15 24 29.7 1006 10 16.0934 0 0
2:53 pm 14:53 Sunny 105 40.6 38 3.3 10 10 WSW 16 26 29.67 1005 10 16.0934 0 0
3:04 pm 15:04 Sunny 104 40 37 3 10 10 WSW 10 17 29.5 999 10 16.0934 0 0
3:53 pm 15:53 Sunny 106 41.1 40 4.4 10 10 WSW 20 31 29.66 1004 10 16.0934 0 0
4:53 pm 16:53 Sunny 104 40 39 3.9 11 11 WSW 9 15 29.65 1004 10 16.0934 0 0
5:53 pm 17:53 Sunny 103 39.4 37 2.8 10 10 SW 18 30 29.63 1004 10 16.0934 0 0
6:53 pm 18:53 Sunny 101 38.3 35 1.7 10 10 W 15 24 29.64 1004 10 16.0934 0 0
7:53 pm 19:53 Clear 99 37.2 31 -0.6 9 9 WSW 9 15 29.64 1004 10 16.0934 0 0
8:53 pm 20:53 Clear 97 36.1 31 -0.6 10 10 W 9 15 29.67 1005 10 16.0934 0 0
9:53 pm 21:53 Clear 95 35 34 1.1 12 12 WSW 5 7 29.67 1005 10 16.0934 0 0
10:53 pm 22:53 Clear 94 34.4 36 2.2 13 13 WSW 6 9 29.67 1005 10 16.0934 0 0
11:53 pm 23:53 Clear 92 33.3 36 2.2 14 14 SW 8 13 29.68 1005 10 16.0934 0 0

Powered by AerisWeather